{"data":{"norad_id":68506,"intl_designator":"2026-067CU","name":"AEPEX","alt_names":[],"object_type":"PAYLOAD","status":"ACTIVE","operator":null,"country":"US","launch_date":"2026-03-30","launch_site_code":"AFWTR","launch_vehicle":null,"mission":null,"orbit_class":"UNKNOWN","rcs_meters":null,"size_class":null,"mass_kg":null,"dimensions":null,"purposes":[],"wikipedia_slug":null,"has_3d_model":false,"image_url":null,"decayed_at":null,"tle_current":{"epoch":"2026-05-25T03:17:28.099392Z","epoch_age_seconds":63227,"freshness":"FRESH","line1":"1 68506U 26067CU  26145.13713078  .00007200  00000+0  35086-3 0  9997","line2":"2 68506  97.4507 103.9242 0004161 135.2779 224.8791 15.18630288  8324","mean_motion":15.18630288,"eccentricity":0.0004161,"inclination_deg":97.4507,"raan_deg":103.9242,"arg_perigee_deg":135.2779,"mean_anomaly_deg":224.8791,"bstar":0.00035086,"rev_number":832,"period_min":94.822288965173,"perigee_km":507.11313218694,"apogee_km":512.84542255297,"semimajor_km":6888.11627737,"source":"CELESTRAK","updated_at":"2026-05-25T13:38:07.880682Z"}}}